Weather Service Report


301 
ASCA44 KEWX 280320
RWRMX 

LATIN AMERICA AND CARIBBEAN REGIONAL WEATHER ROUNDUP
NATIONAL WEATHER SERVICE AUSTIN/SAN ANTONIO TX
1000 PM CDT MON JUL 27 2015

NOTE: "FAIR" INDICATED FEW OR NO CLOUDS BELOW 12,000 FEET WITH NO
SIGNIFICANT WEATHER AND/OR OBSTRUCTIONS TO VISIBILITY.

BAJA CALIFORNIA
  
CITY           SKY/WX    TMP DP  RH WIND       PRES   REMARKS
LORETO           N/A    N/A N/A N/A MISG        N/A                   
LA PAZ         PTCLDY    86  64  48 S7        29.81R                  
MEXICALI       CLEAR    102  39  11 SE3       29.68R HX  97           
S.J. DEL CABO  CLEAR     84  72  65 E6        29.83R                  
TIJUANA        CLEAR     68  57  68 W8        29.92R                  

NORTHWESTERN MEXICO
  
CITY           SKY/WX    TMP DP  RH WIND       PRES   REMARKS
CULIACAN       PTCLDY    90  79  70 S6        29.82R HX 105           
DURANGO        MOCLDY    68  55  64 S9        30.19R                  
GUAYMAS          N/A    N/A N/A N/A MISG        N/A                   
HERMOSILLO     PTCLDY    91  70  49 S7        29.83R HX  97           
CD. JUAREZ     TSTM      84  64  51 SE8       29.95R                  
LOS MOCHIS     MOCLDY    86  72  62 SW5       29.81R HX  92           
OBREGON        PTCLDY    88  66  48 W5        29.77R HX  90           

NORTHEASTERN MEXICO
  
CITY           SKY/WX    TMP DP  RH WIND       PRES   REMARKS
CHIHUAHUA      MOCLDY    84  52  32 NE9       30.01R                  
MATAMOROS      CLEAR     82  79  89 SE12      29.89R HX  93           
MONCLOVA         N/A    N/A N/A N/A MISG        N/A                   
MONTERREY      CLEAR     88  70  55 E12       29.84R HX  92           
NUEVO LAREDO     N/A    N/A N/A N/A MISG        N/A                   
PIEDRAS NEGRAS   N/A    N/A N/A N/A MISG        N/A                   
REYNOSA        CLEAR     81  72  74 SE17      29.87R                  
SALTILLO       CLEAR     79  57  47 CALM      30.11R                  
TORREON        MOCLDY    88  57  35 NW9       29.98R                  

WESTERN MEXICO
  
CITY           SKY/WX    TMP DP  RH WIND       PRES   REMARKS
AGUASCALIENTES PTCLDY    64  37  36 NE8       30.19R                  
DEL BAJIO      CLEAR     72  41  33 N7        30.22R                  
GUADALAJARA    MOCLDY    64  57  77 W3        30.13R                  
MANZANILLO       N/A    N/A N/A N/A MISG        N/A                   
MAZATLAN       MOCLDY    82  73  74 SW8       29.82R                  
P. VALLARTA    CLOUDY    79  77  94 NE5       29.84R                  
ZACATECAS        N/A    N/A N/A N/A MISG        N/A                   

CENTRAL MEXICO
  
CITY           SKY/WX    TMP DP  RH WIND       PRES   REMARKS
MEXICO CITY    PTCLDY    68  54  60 NE12      30.28R                  
PUEBLA         PTCLDY    63  48  59 SE6       30.30R                  
QUERETARO      PTCLDY    64  54  68 SE8       30.26R                  
S. LUIS POTOSI PTCLDY    70  45  40 E7        30.21R                  
TAMPICO          N/A    N/A N/A N/A MISG        N/A                   
TOLUCA         TSTM      55  50  82 SE13      30.38R                  

SOUTHERN MEXICO
  
CITY           SKY/WX    TMP DP  RH WIND       PRES   REMARKS
ACAPULCO       CLOUDY    86  81  84 W5        29.84R HX 102           
OAXACA         MOCLDY    73  46  38 SE2       30.19R                  
P. ESCONDIDO   MOCLDY    86  72  62 NE3       29.95R HX  92           
VERACRUZ       CLEAR     82  75  78 E5        29.90R                  
ZIHUATANEJO      N/A    N/A N/A N/A MISG        N/A                   

YUCATAN PENINSULA
  
CITY           SKY/WX    TMP DP  RH WIND       PRES   REMARKS
CAMPECHE       CLEAR     86  79  79 N12       29.89R HX  99           
CANCUN         PTCLDY    84  77  79 E6        30.00S HX  94           
CHETUMAL       MOCLDY    84  77  79 E8        29.97R HX  94           
CD. DEL CARMEN PTCLDY    86  77  74 NE13      29.90R HX  97           
COZUMEL        PTCLDY    79  75  89 CALM      30.00R                  
MERIDA         MOCLDY    82  66  57 E10       29.95S                  
MINATITLAN     CLEAR     82  73  74 N14       29.83S                  
TAPACHULA      MOCLDY    84  79  84 CALM      29.86R HX  96           
TUX. GUTIERREZ MOCLDY    81  68  65 NW7       29.90R                  
VILLAHERMOSA   CLEAR     84  72  65 E9        29.88R                  

CENTRAL AMERICA
  
CITY           SKY/WX    TMP DP  RH WIND       PRES   REMARKS
MANAGUA        PTCLDY    81  73  78 E9        29.86R                  

CARIBBEAN
  
CITY           SKY/WX    TMP DP  RH WIND       PRES   REMARKS
ARUBA          PTCLDY    82  75  78 E21       29.89S                  
CURACAO        PTCLDY    82  75  78 E13       29.94R                  
KINGSTON       PTCLDY    84  73  70 NE5       29.97R HX  91           
NASSAU         PTCLDY    84  79  84 SE5       30.05S HX  96           
SAN JUAN       PTCLDY    82  75  78 E12       30.07R                  
SANTO DOMINGO  PTCLDY    81  72  74 NE6       30.03S                  
ST. CROIX      CLEAR     82  73  74 E13       30.05                   
ST. MAARTEN    PTCLDY    82  73  74 E13       30.06S                  
ST. THOMAS     CLEAR     84  73  70 E12       30.06  HX  91           

$$


Return to Home page


Western Regional Climate Center, wrcc@dri.edu